Location: Lake Arresoe
(56.0000°N, 12.5000°E)
Time: 07:24:48
(UTC+02:00)

Cosmos 1674 - Pass Details

Date: 22 August 2020
Orbit: 495 x 517 km, 82.5° (Epoch: 21 September)

Event Time Altitude Azimuth Distance (km) Brightness Sun altitude
Rises 02:14:18 0° 334° (NNW) 2,611 7.0 -21.1°
Reaches altitude 10° 02:17:19 10° 307° (NW) 1,724 5.6 -21.0°
Enters shadow 02:18:58 13° 281° (W) 1,522 5.0 -20.9°
